| time (UTC) | temp F | wind direction | speed MPH | gust MPH | rain 1hr in | rain 24hr in | rain mn in | humidity % | barometer mb |
| 20260508065307 | 44 | 246 | 0.0 | 0.0 | 0.00 | 0.00 | 0.00 | 99 | 1009.5 |
| 20260508064803 | 44 | 246 | 0.0 | 0.0 | 0.00 | 0.00 | 0.00 | 99 | 1009.7 |
| 20260508064301 | 45 | 254 | 0.0 | 0.0 | 0.00 | 0.00 | 0.00 | 99 | 1009.6 |
| 20260508063758 | 45 | 254 | 0.0 | 0.0 | 0.00 | 0.00 | 0.00 | 99 | 1009.7 |
| 20260508063256 | 45 | 270 | 0.0 | 0.0 | 0.00 | 0.00 | 0.00 | 99 | 1009.5 |
| 20260508062753 | 45 | 257 | 0.0 | 0.0 | 0.00 | 0.00 | 0.00 | 99 | 1009.5 |
| 20260508062251 | 45 | 257 | 0.0 | 0.0 | 0.00 | 0.00 | 0.00 | 99 | 1009.4 |
| 20260508061747 | 46 | 257 | 1.0 | 2.0 | 0.00 | 0.00 | 0.00 | 99 | 1009.6 |
| 20260508061244 | 45 | 209 | 0.0 | 1.0 | 0.00 | 0.00 | 0.00 | 99 | 1009.4 |
| 20260508060741 | 45 | 187 | 0.0 | 2.0 | 0.00 | 0.00 | 0.00 | 99 | 1009.3 |
| 20260508060239 | 45 | 195 | 0.0 | 0.0 | 0.00 | 0.00 | 0.00 | 99 | 1009.6 |
| 20260508055733 | 45 | 254 | 0.0 | 0.0 | 0.00 | 0.00 | 0.00 | 99 | 1009.4 |
| 20260508055231 | 45 | 254 | 0.0 | 0.0 | 0.00 | 0.00 | 0.00 | 99 | 1009.5 |
| 20260508054727 | 45 | 254 | 0.0 | 0.0 | 0.00 | 0.00 | 0.00 | 99 | 1009.5 |
| 20260508054226 | 45 | 203 | 0.0 | 0.0 | 0.00 | 0.00 | 0.00 | 99 | 1009.3 |
| 20260508053722 | 45 | 203 | 0.0 | 0.0 | 0.00 | 0.00 | 0.00 | 99 | 1009.3 |
| 20260508053220 | 45 | 203 | 0.0 | 1.0 | 0.00 | 0.00 | 0.00 | 99 | 1009.4 |
| 20260508052716 | 45 | 194 | 0.0 | 1.0 | 0.00 | 0.00 | 0.00 | 99 | 1009.8 |
| 20260508052213 | 45 | 203 | 0.0 | 0.0 | 0.00 | 0.00 | 0.00 | 99 | 1009.6 |
| 20260508051710 | 45 | 203 | 0.0 | 1.0 | 0.00 | 0.00 | 0.00 | 99 | 1009.7 |
| 20260508051205 | 45 | 209 | 0.0 | 0.0 | 0.00 | 0.00 | 0.00 | 99 | 1009.6 |
| 20260508050702 | 45 | 209 | 0.0 | 0.0 | 0.00 | 0.00 | 0.00 | 99 | 1009.6 |
| 20260508050159 | 45 | 240 | 0.0 | 0.0 | 0.00 | 0.00 | 0.00 | 99 | 1009.6 |
| 20260508045654 | 46 | 240 | 0.0 | 0.0 | 0.00 | 0.00 | 0.00 | 99 | 1009.7 |
| 20260508045153 | 46 | 169 | 0.0 | 1.0 | 0.00 | 0.00 | 0.00 | 99 | 1009.6 |
| 20260508044650 | 46 | 180 | 0.0 | 1.0 | 0.00 | 0.00 | 0.00 | 99 | 1009.3 |
| 20260508044146 | 45 | 270 | 0.0 | 0.0 | 0.00 | 0.00 | 0.00 | 99 | 1009.6 |
| 20260508043642 | 46 | 209 | 0.0 | 1.0 | 0.00 | 0.00 | 0.00 | 99 | 1009.4 |
| 20260508043140 | 46 | 240 | 0.0 | 1.0 | 0.00 | 0.00 | 0.00 | 99 | 1009.4 |
| 20260508042637 | 46 | 206 | 0.0 | 1.0 | 0.00 | 0.00 | 0.00 | 99 | 1009.6 |
| 20260508042134 | 46 | 195 | 0.0 | 0.0 | 0.00 | 0.00 | 0.00 | 99 | 1009.6 |
| 20260508041630 | 46 | 195 | 0.0 | 0.0 | 0.00 | 0.00 | 0.00 | 99 | 1009.6 |
| 20260508041127 | 46 | 240 | 1.0 | 1.0 | 0.00 | 0.00 | 0.00 | 98 | 1009.4 |
| 20260508040623 | 46 | 195 | 0.0 | 0.0 | 0.00 | 0.00 | 0.00 | 98 | 1009.3 |
| 20260508040121 | 46 | 187 | 0.0 | 0.0 | 0.00 | 0.00 | 0.00 | 98 | 1009.3 |
| 20260508035618 | 46 | 234 | 0.0 | 2.0 | 0.00 | 0.30 | 0.30 | 98 | 1009.5 |
| 20260508035116 | 46 | 234 | 0.0 | 0.0 | 0.00 | 0.30 | 0.30 | 98 | 1009.6 |
| 20260508034612 | 46 | 234 | 0.0 | 1.0 | 0.00 | 0.30 | 0.30 | 98 | 1009.3 |
| 20260508034109 | 46 | 151 | 0.0 | 1.0 | 0.00 | 0.30 | 0.30 | 98 | 1009.4 |
| 20260508033607 | 46 | 195 | 0.0 | 1.0 | 0.00 | 0.30 | 0.30 | 98 | 1009.5 |
| 20260508033105 | 46 | 196 | 0.0 | 2.0 | 0.00 | 0.30 | 0.30 | 97 | 1009.5 |
| 20260508032601 | 46 | 194 | 0.0 | 1.0 | 0.00 | 0.30 | 0.30 | 97 | 1009.3 |
| 20260508032059 | 46 | 345 | 0.0 | 0.0 | 0.00 | 0.30 | 0.30 | 97 | 1009.5 |
| 20260508031556 | 47 | 74 | 0.0 | 0.0 | 0.00 | 0.30 | 0.30 | 97 | 1009.6 |
| 20260508031051 | 46 | 135 | 2.0 | 2.0 | 0.00 | 0.30 | 0.30 | 97 | 1009.4 |
| 20260508030548 | 47 | 345 | 0.0 | 1.0 | 0.00 | 0.30 | 0.30 | 97 | 1009.6 |
| 20260508030046 | 47 | 229 | 0.0 | 0.0 | 0.00 | 0.30 | 0.30 | 97 | 1009.5 |
| 20260508025542 | 47 | 195 | 0.0 | 0.0 | 0.00 | 0.30 | 0.30 | 96 | 1009.4 |
| 20260508025039 | 47 | 195 | 0.0 | 0.0 | 0.00 | 0.30 | 0.30 | 96 | 1009.7 |
| 20260508024535 | 47 | 195 | 0.0 | 0.0 | 0.00 | 0.30 | 0.30 | 96 | 1009.6 |
| 20260508024033 | 47 | 172 | 0.0 | 0.0 | 0.00 | 0.30 | 0.30 | 96 | 1009.5 |
| 20260508023529 | 47 | 261 | 0.0 | 0.0 | 0.00 | 0.30 | 0.30 | 96 | 1009.6 |
| 20260508023026 | 47 | 261 | 0.0 | 0.0 | 0.00 | 0.30 | 0.30 | 95 | 1009.5 |
| 20260508022522 | 48 | 261 | 0.0 | 0.0 | 0.00 | 0.30 | 0.30 | 95 | 1009.3 |
| 20260508022019 | 48 | 254 | 0.0 | 0.0 | 0.00 | 0.30 | 0.30 | 95 | 1009.3 |
| 20260508021515 | 48 | 254 | 0.0 | 0.0 | 0.00 | 0.30 | 0.30 | 95 | 1009.5 |
| 20260508021011 | 48 | 254 | 0.0 | 0.0 | 0.00 | 0.30 | 0.30 | 94 | 1009.7 |
| 20260508020509 | 48 | 254 | 0.0 | 0.0 | 0.00 | 0.30 | 0.30 | 94 | 1009.4 |
| 20260508020006 | 48 | 254 | 0.0 | 0.0 | 0.00 | 0.30 | 0.30 | 93 | 1009.4 |
| 20260508015504 | 48 | 254 | 0.0 | 0.0 | 0.00 | 0.30 | 0.30 | 93 | 1009.4 |
| 20260508015000 | 48 | 195 | 0.0 | 0.0 | 0.00 | 0.30 | 0.30 | 93 | 1009.2 |
| 20260508014457 | 49 | 195 | 0.0 | 0.0 | 0.00 | 0.30 | 0.30 | 92 | 1009.2 |
| 20260508013953 | 49 | 195 | 0.0 | 0.0 | 0.00 | 0.30 | 0.30 | 92 | 1009.0 |
| 20260508013449 | 49 | 195 | 0.0 | 0.0 | 0.00 | 0.30 | 0.30 | 91 | 1009.1 |
| 20260508012947 | 49 | 195 | 0.0 | 0.0 | 0.00 | 0.30 | 0.30 | 91 | 1009.2 |
| 20260508012443 | 50 | 195 | 0.0 | 0.0 | 0.00 | 0.30 | 0.30 | 91 | 1009.0 |
| 20260508011941 | 50 | 106 | 0.0 | 0.0 | 0.00 | 0.30 | 0.30 | 90 | 1009.1 |
| 20260508011438 | 50 | 106 | 0.0 | 0.0 | 0.00 | 0.30 | 0.30 | 89 | 1009.3 |
| 20260508010936 | 50 | 106 | 0.0 | 1.0 | 0.00 | 0.30 | 0.30 | 89 | 1009.3 |
| 20260508010433 | 50 | 186 | 0.0 | 1.0 | 0.00 | 0.30 | 0.30 | 88 | 1009.0 |
| 20260508005930 | 51 | 216 | 0.0 | 1.0 | 0.00 | 0.30 | 0.30 | 88 | 1009.0 |
| 20260508005427 | 51 | 216 | 0.0 | 2.0 | 0.00 | 0.30 | 0.30 | 87 | 1008.8 |
| 20260508004923 | 51 | 353 | 0.0 | 0.0 | 0.00 | 0.30 | 0.30 | 86 | 1008.9 |
| 20260508004419 | 52 | 74 | 0.0 | 1.0 | 0.00 | 0.30 | 0.30 | 85 | 1008.9 |
| 20260508003916 | 52 | 195 | 0.0 | 1.0 | 0.00 | 0.30 | 0.30 | 84 | 1008.9 |
| 20260508003413 | 53 | 203 | 0.0 | 0.0 | 0.00 | 0.30 | 0.30 | 83 | 1008.9 |
| 20260508002911 | 53 | 203 | 0.0 | 1.0 | 0.00 | 0.30 | 0.30 | 83 | 1008.7 |
| 20260508002407 | 53 | 194 | 0.0 | 1.0 | 0.00 | 0.30 | 0.30 | 82 | 1008.5 |
| 20260508001903 | 54 | 188 | 0.0 | 2.0 | 0.00 | 0.30 | 0.30 | 80 | 1008.6 |
| 20260508001359 | 54 | 257 | 0.0 | 2.0 | 0.00 | 0.30 | 0.30 | 80 | 1008.3 |
| 20260508000856 | 54 | 198 | 0.0 | 3.0 | 0.00 | 0.30 | 0.30 | 80 | 1008.2 |
| 20260508000352 | 54 | 195 | 0.0 | 2.0 | 0.00 | 0.30 | 0.30 | 79 | 1008.3 |
| 20260507235848 | 55 | 352 | 0.0 | 0.0 | 0.00 | 0.30 | 0.30 | 79 | 1008.2 |
| 20260507235346 | 55 | 151 | 0.0 | 1.0 | 0.00 | 0.30 | 0.30 | 77 | 1008.4 |
| 20260507234843 | 56 | 165 | 1.0 | 4.0 | 0.00 | 0.30 | 0.30 | 76 | 1008.4 |
| 20260507234339 | 56 | 246 | 0.0 | 2.0 | 0.00 | 0.30 | 0.30 | 75 | 1008.2 |
| 20260507233836 | 56 | 130 | 2.0 | 3.0 | 0.00 | 0.30 | 0.30 | 75 | 1008.2 |
| 20260507233333 | 57 | 185 | 1.0 | 3.0 | 0.00 | 0.30 | 0.30 | 75 | 1008.2 |
| 20260507232832 | 57 | 168 | 0.0 | 4.0 | 0.00 | 0.30 | 0.30 | 75 | 1008.1 |
| 20260507232327 | 57 | 117 | 4.0 | 5.0 | 0.00 | 0.30 | 0.30 | 74 | 1008.2 |
| 20260507231819 | 57 | 103 | 2.0 | 5.0 | 0.00 | 0.30 | 0.30 | 73 | 1007.9 |
| 20260507231316 | 57 | 103 | 2.0 | 5.0 | 0.00 | 0.30 | 0.30 | 73 | 1007.9 |
| 20260507230812 | 57 | 204 | 2.0 | 5.0 | 0.00 | 0.30 | 0.30 | 73 | 1007.9 |
| 20260507230310 | 57 | 246 | 3.0 | 4.0 | 0.00 | 0.30 | 0.30 | 72 | 1007.7 |
| 20260507225810 | 58 | 229 | 3.0 | 6.0 | 0.00 | 0.30 | 0.30 | 71 | 1007.7 |
| 20260507225306 | 58 | 229 | 3.0 | 6.0 | 0.00 | 0.30 | 0.30 | 71 | 1007.7 |
| 20260507224802 | 58 | 154 | 1.0 | 6.0 | 0.00 | 0.30 | 0.30 | 71 | 1007.6 |
| 20260507224259 | 58 | 173 | 2.0 | 3.0 | 0.00 | 0.30 | 0.30 | 71 | 1007.4 |
| 20260507223755 | 59 | 185 | 2.0 | 4.0 | 0.00 | 0.30 | 0.30 | 70 | 1007.5 |
| 20260507223251 | 59 | 197 | 3.0 | 4.0 | 0.00 | 0.30 | 0.30 | 71 | 1007.5 |
| 20260507222749 | 59 | 168 | 2.0 | 3.0 | 0.00 | 0.30 | 0.30 | 71 | 1007.5 |
| 20260507222244 | 59 | 234 | 4.0 | 6.0 | 0.00 | 0.30 | 0.30 | 71 | 1007.5 |
| 20260507221742 | 59 | 166 | 1.0 | 8.0 | 0.00 | 0.30 | 0.30 | 71 | 1007.7 |
| 20260507221238 | 59 | 106 | 5.0 | 5.0 | 0.00 | 0.30 | 0.30 | 72 | 1007.8 |
| 20260507220734 | 60 | 110 | 3.0 | 5.0 | 0.00 | 0.30 | 0.30 | 72 | 1007.7 |
| 20260507220233 | 60 | 187 | 0.0 | 3.0 | 0.00 | 0.30 | 0.30 | 73 | 1007.9 |
| 20260507215728 | 60 | 305 | 3.0 | 7.0 | 0.00 | 0.30 | 0.30 | 74 | 1008.1 |
| 20260507215226 | 59 | 168 | 5.0 | 9.0 | 0.00 | 0.30 | 0.30 | 74 | 1007.7 |
| 20260507214723 | 60 | 132 | 4.0 | 6.0 | 0.00 | 0.30 | 0.30 | 72 | 1007.6 |
| 20260507214220 | 60 | 181 | 5.0 | 5.0 | 0.00 | 0.30 | 0.30 | 70 | 1007.7 |
| 20260507213716 | 63 | 0 | 0.0 | 3.0 | 0.00 | 0.30 | 0.30 | 55 | 1007.4 |
| 20260507213213 | 63 | 28 | 2.0 | 4.0 | 0.00 | 0.30 | 0.30 | 52 | 1007.4 |
| 20260507212709 | 64 | 203 | 3.0 | 3.0 | 0.00 | 0.30 | 0.30 | 51 | 1007.2 |
| 20260507212206 | 64 | 294 | 1.0 | 2.0 | 0.00 | 0.30 | 0.30 | 50 | 1007.5 |
| 20260507211703 | 63 | 270 | 1.0 | 2.0 | 0.00 | 0.30 | 0.30 | 49 | 1007.5 |
| 20260507211158 | 63 | 315 | 2.0 | 2.0 | 0.00 | 0.30 | 0.30 | 53 | 1007.4 |
| 20260507210656 | 63 | 236 | 2.0 | 3.0 | 0.00 | 0.30 | 0.30 | 53 | 1007.5 |
| 20260507210152 | 63 | 254 | 0.0 | 1.0 | 0.00 | 0.30 | 0.30 | 52 | 1007.6 |
| 20260507205649 | 64 | 286 | 2.0 | 2.0 | 0.00 | 0.30 | 0.30 | 54 | 1007.2 |
| 20260507205146 | 63 | 349 | 2.0 | 3.0 | 0.00 | 0.30 | 0.30 | 53 | 1007.3 |
| 20260507204642 | 62 | 198 | 3.0 | 4.0 | 0.00 | 0.30 | 0.30 | 51 | 1007.3 |
| 20260507204140 | 63 | 187 | 0.0 | 3.0 | 0.00 | 0.30 | 0.30 | 51 | 1006.9 |
| 20260507203638 | 64 | 277 | 1.0 | 5.0 | 0.00 | 0.30 | 0.30 | 50 | 1007.0 |
| 20260507203135 | 64 | 201 | 2.0 | 5.0 | 0.00 | 0.30 | 0.30 | 54 | 1007.3 |
| 20260507202630 | 64 | 229 | 2.0 | 3.0 | 0.00 | 0.30 | 0.30 | 50 | 1007.2 |
| 20260507202127 | 64 | 195 | 5.0 | 5.0 | 0.00 | 0.30 | 0.30 | 50 | 1007.4 |
| 20260507201622 | 64 | 96 | 1.0 | 2.0 | 0.00 | 0.30 | 0.30 | 53 | 1007.4 |
| 20260507201119 | 64 | 90 | 0.0 | 3.0 | 0.00 | 0.30 | 0.30 | 53 | 1007.4 |
| 20260507200615 | 63 | 184 | 2.0 | 3.0 | 0.00 | 0.30 | 0.30 | 53 | 1007.2 |
| 20260507200111 | 63 | 2 | 3.0 | 4.0 | 0.00 | 0.30 | 0.30 | 54 | 1007.6 |
| 20260507195609 | 64 | 0 | 3.0 | 3.0 | 0.00 | 0.30 | 0.30 | 51 | 1007.4 |
| 20260507195106 | 64 | 354 | 1.0 | 2.0 | 0.00 | 0.30 | 0.30 | 55 | 1007.5 |
| 20260507194602 | 63 | 203 | 0.0 | 4.0 | 0.00 | 0.30 | 0.30 | 54 | 1007.4 |
| 20260507194057 | 62 | 262 | 0.0 | 2.0 | 0.00 | 0.30 | 0.30 | 55 | 1007.9 |
| 20260507193555 | 62 | 246 | 0.0 | 1.0 | 0.00 | 0.30 | 0.30 | 53 | 1007.9 |
| 20260507193052 | 62 | 246 | 0.0 | 3.0 | 0.00 | 0.30 | 0.30 | 56 | 1007.8 |
| 20260507192548 | 61 | 270 | 0.0 | 2.0 | 0.00 | 0.30 | 0.30 | 58 | 1008.4 |
| 20260507192045 | 61 | 270 | 0.0 | 2.0 | 0.00 | 0.30 | 0.30 | 58 | 1008.4 |
| 20260507191540 | 61 | 249 | 0.0 | 1.0 | 0.00 | 0.30 | 0.30 | 66 | 1008.3 |
| 20260507191038 | 61 | 325 | 0.0 | 3.0 | 0.00 | 0.30 | 0.30 | 65 | 1008.2 |
| 20260507190535 | 61 | 261 | 0.0 | 2.0 | 0.00 | 0.30 | 0.30 | 60 | 1008.6 |
| 20260507190034 | 61 | 250 | 2.0 | 3.0 | 0.00 | 0.30 | 0.30 | 55 | 1009.1 |
| 20260507185532 | 62 | 334 | 1.0 | 2.0 | 0.00 | 0.30 | 0.30 | 58 | 1008.8 |
| 20260507185028 | 62 | 324 | 0.0 | 2.0 | 0.00 | 0.30 | 0.30 | 55 | 1008.5 |
| 20260507184526 | 63 | 261 | 0.0 | 3.0 | 0.00 | 0.30 | 0.30 | 56 | 1008.3 |
| 20260507184024 | 64 | 270 | 0.0 | 2.0 | 0.00 | 0.30 | 0.30 | 57 | 1008.6 |
| 20260507183519 | 63 | 270 | 2.0 | 4.0 | 0.00 | 0.30 | 0.30 | 56 | 1008.6 |
| 20260507183017 | 63 | 0 | 0.0 | 3.0 | 0.00 | 0.30 | 0.30 | 55 | 1008.3 |
| 20260507182513 | 64 | 345 | 2.0 | 3.0 | 0.00 | 0.30 | 0.30 | 57 | 1008.5 |
| 20260507182009 | 65 | 66 | 0.0 | 3.0 | 0.00 | 0.30 | 0.30 | 57 | 1008.6 |
| 20260507181506 | 63 | 353 | 0.0 | 3.0 | 0.00 | 0.30 | 0.30 | 56 | 1008.7 |
| 20260507181002 | 64 | 331 | 0.0 | 3.0 | 0.00 | 0.30 | 0.30 | 59 | 1008.8 |
| 20260507180459 | 63 | 260 | 2.0 | 4.0 | 0.00 | 0.30 | 0.30 | 57 | 1008.8 |
| 20260507175955 | 63 | 270 | 0.0 | 2.0 | 0.00 | 0.30 | 0.30 | 59 | 1008.8 |
| 20260507175452 | 63 | 206 | 2.0 | 4.0 | 0.00 | 0.30 | 0.30 | 59 | 1008.7 |
| 20260507174949 | 63 | 174 | 1.0 | 3.0 | 0.00 | 0.30 | 0.30 | 56 | 1008.7 |
| 20260507174446 | 63 | 215 | 0.0 | 2.0 | 0.00 | 0.30 | 0.30 | 53 | 1008.7 |
| 20260507173943 | 62 | 351 | 2.0 | 2.0 | 0.00 | 0.30 | 0.30 | 58 | 1009.2 |
| 20260507173440 | 63 | 263 | 1.0 | 3.0 | 0.00 | 0.30 | 0.30 | 57 | 1009.3 |
| 20260507172938 | 63 | 265 | 2.0 | 3.0 | 0.00 | 0.30 | 0.30 | 56 | 1009.3 |
| 20260507172434 | 62 | 262 | 0.0 | 3.0 | 0.00 | 0.30 | 0.30 | 58 | 1009.3 |
| 20260507171930 | 62 | 270 | 2.0 | 2.0 | 0.00 | 0.30 | 0.30 | 60 | 1009.3 |
| 20260507171426 | 62 | 297 | 2.0 | 3.0 | 0.00 | 0.30 | 0.30 | 63 | 1009.5 |
| 20260507170924 | 62 | 12 | 0.0 | 3.0 | 0.00 | 0.30 | 0.30 | 58 | 1009.5 |
| 20260507170420 | 62 | 69 | 1.0 | 2.0 | 0.00 | 0.30 | 0.30 | 59 | 1009.3 |
| 20260507165917 | 62 | 201 | 0.0 | 3.0 | 0.00 | 0.30 | 0.30 | 59 | 1009.6 |
| 20260507165413 | 61 | 270 | 2.0 | 5.0 | 0.00 | 0.30 | 0.30 | 58 | 1009.8 |
| 20260507164908 | 61 | 243 | 0.0 | 3.0 | 0.00 | 0.30 | 0.30 | 59 | 1010.1 |
| 20260507164406 | 62 | 258 | 0.0 | 5.0 | 0.00 | 0.30 | 0.30 | 65 | 1010.1 |
| 20260507163903 | 61 | 270 | 2.0 | 3.0 | 0.00 | 0.30 | 0.30 | 60 | 1010.2 |
| 20260507163400 | 60 | 254 | 0.0 | 3.0 | 0.00 | 0.30 | 0.30 | 61 | 1010.3 |
| 20260507162857 | 62 | 352 | 0.0 | 3.0 | 0.00 | 0.30 | 0.30 | 62 | 1010.4 |
| 20260507162352 | 60 | 127 | 2.0 | 3.0 | 0.00 | 0.30 | 0.30 | 61 | 1010.4 |
| 20260507161850 | 60 | 241 | 2.0 | 3.0 | 0.00 | 0.30 | 0.30 | 62 | 1010.4 |
| 20260507161346 | 59 | 270 | 0.0 | 3.0 | 0.00 | 0.30 | 0.30 | 65 | 1010.4 |
| 20260507160843 | 60 | 29 | 2.0 | 5.0 | 0.00 | 0.30 | 0.30 | 66 | 1010.5 |
| 20260507160338 | 60 | 313 | 0.0 | 3.0 | 0.00 | 0.30 | 0.30 | 64 | 1010.4 |
| 20260507155835 | 60 | 180 | 0.0 | 2.0 | 0.00 | 0.30 | 0.30 | 67 | 1010.5 |
| 20260507155330 | 59 | 262 | 5.0 | 5.0 | 0.00 | 0.30 | 0.30 | 69 | 1010.5 |
| 20260507154827 | 59 | 356 | 4.0 | 5.0 | 0.00 | 0.30 | 0.30 | 71 | 1010.7 |
| 20260507154325 | 61 | 26 | 3.0 | 3.0 | 0.00 | 0.30 | 0.30 | 72 | 1010.8 |
| 20260507153821 | 60 | 270 | 2.0 | 3.0 | 0.00 | 0.30 | 0.30 | 71 | 1010.8 |
| 20260507153318 | 58 | 292 | 3.0 | 5.0 | 0.00 | 0.30 | 0.30 | 71 | 1010.8 |
| 20260507152815 | 58 | 166 | 0.0 | 3.0 | 0.00 | 0.30 | 0.30 | 71 | 1010.9 |
| 20260507152311 | 57 | 270 | 2.0 | 4.0 | 0.00 | 0.30 | 0.30 | 75 | 1011.0 |
| 20260507151807 | 57 | 270 | 2.0 | 4.0 | 0.00 | 0.30 | 0.30 | 75 | 1011.0 |
| 20260507151303 | 58 | 152 | 4.0 | 4.0 | 0.00 | 0.30 | 0.30 | 77 | 1010.8 |
| 20260507150801 | 57 | 270 | 2.0 | 4.0 | 0.00 | 0.30 | 0.30 | 75 | 1011.2 |
| 20260507150257 | 57 | 270 | 2.0 | 4.0 | 0.00 | 0.30 | 0.30 | 75 | 1011.2 |
| 20260507145753 | 57 | 324 | 0.0 | 5.0 | 0.00 | 0.30 | 0.30 | 79 | 1010.9 |
| 20260507145250 | 57 | 123 | 3.0 | 3.0 | 0.00 | 0.30 | 0.30 | 78 | 1010.9 |
| 20260507144747 | 56 | 41 | 2.0 | 4.0 | 0.00 | 0.30 | 0.30 | 79 | 1011.0 |
| 20260507144244 | 56 | 270 | 2.0 | 3.0 | 0.00 | 0.30 | 0.30 | 80 | 1011.3 |
| 20260507143741 | 56 | 279 | 0.0 | 3.0 | 0.00 | 0.30 | 0.30 | 83 | 1011.3 |
| 20260507143238 | 55 | 2 | 3.0 | 3.0 | 0.00 | 0.30 | 0.30 | 81 | 1011.4 |
| 20260507142734 | 55 | 121 | 4.0 | 4.0 | 0.00 | 0.30 | 0.30 | 83 | 1011.2 |
| 20260507142231 | 55 | 337 | 0.0 | 3.0 | 0.00 | 0.30 | 0.30 | 85 | 1011.5 |
| 20260507141727 | 54 | 169 | 1.0 | 3.0 | 0.00 | 0.30 | 0.30 | 84 | 1011.4 |
| 20260507141224 | 54 | 23 | 0.0 | 3.0 | 0.00 | 0.30 | 0.30 | 86 | 1011.3 |
| 20260507140720 | 54 | 303 | 0.0 | 3.0 | 0.00 | 0.30 | 0.30 | 85 | 1011.4 |
| 20260507140218 | 54 | 0 | 2.0 | 2.0 | 0.00 | 0.30 | 0.30 | 84 | 1011.3 |
| 20260507135714 | 54 | 294 | 1.0 | 3.0 | 0.00 | 0.30 | 0.30 | 85 | 1011.4 |
| 20260507135212 | 54 | 270 | 2.0 | 4.0 | 0.00 | 0.30 | 0.30 | 86 | 1011.5 |
| 20260507134708 | 54 | 213 | 2.0 | 2.0 | 0.00 | 0.30 | 0.30 | 88 | 1011.5 |
| 20260507134204 | 54 | 270 | 0.0 | 1.0 | 0.00 | 0.30 | 0.30 | 88 | 1011.6 |
| 20260507133700 | 53 | 328 | 0.0 | 1.0 | 0.00 | 0.30 | 0.30 | 90 | 1011.6 |
| 20260507133158 | 53 | 203 | 0.0 | 2.0 | 0.00 | 0.30 | 0.30 | 90 | 1011.5 |
| 20260507132655 | 53 | 354 | 3.0 | 4.0 | 0.00 | 0.30 | 0.30 | 90 | 1011.6 |
| 20260507132151 | 53 | 266 | 2.0 | 5.0 | 0.00 | 0.30 | 0.30 | 89 | 1011.3 |
| 20260507131648 | 53 | 212 | 1.0 | 2.0 | 0.00 | 0.30 | 0.30 | 92 | 1011.2 |
| 20260507131146 | 53 | 246 | 0.0 | 2.0 | 0.00 | 0.30 | 0.30 | 93 | 1011.3 |
| 20260507130642 | 52 | 356 | 2.0 | 3.0 | 0.00 | 0.30 | 0.30 | 94 | 1011.3 |
| 20260507130140 | 52 | 261 | 0.0 | 2.0 | 0.00 | 0.30 | 0.30 | 96 | 1011.6 |
| 20260507125639 | 51 | 275 | 2.0 | 3.0 | 0.00 | 0.30 | 0.30 | 98 | 1011.4 |
| 20260507125136 | 52 | 352 | 0.0 | 2.0 | 0.00 | 0.30 | 0.30 | 99 | 1011.4 |
| 20260507124632 | 52 | 279 | 0.0 | 1.0 | 0.00 | 0.30 | 0.30 | 99 | 1011.4 |
| 20260507124130 | 51 | 270 | 0.0 | 2.0 | 0.00 | 0.30 | 0.30 | 99 | 1011.3 |
| 20260507123628 | 51 | 5 | 1.0 | 1.0 | 0.00 | 0.30 | 0.30 | 99 | 1011.1 |
| 20260507123125 | 51 | 240 | 1.0 | 2.0 | 0.00 | 0.30 | 0.30 | 99 | 1011.3 |
| 20260507122620 | 51 | 262 | 0.0 | 2.0 | 0.00 | 0.30 | 0.30 | 99 | 1011.4 |
| 20260507122116 | 51 | 255 | 0.0 | 1.0 | 0.00 | 0.30 | 0.30 | 99 | 1011.4 |
| 20260507121612 | 51 | 251 | 0.0 | 1.0 | 0.00 | 0.30 | 0.30 | 99 | 1011.4 |
| 20260507121108 | 51 | 294 | 0.0 | 1.0 | 0.00 | 0.30 | 0.30 | 99 | 1011.3 |
| 20260507120604 | 51 | 264 | 1.0 | 2.0 | 0.00 | 0.30 | 0.30 | 99 | 1011.2 |
| 20260507120101 | 51 | 278 | 0.0 | 1.0 | 0.00 | 0.30 | 0.30 | 99 | 1011.0 |
| 20260507115557 | 51 | 0 | 0.0 | 2.0 | 0.00 | 0.30 | 0.30 | 99 | 1011.1 |
| 20260507115053 | 51 | 300 | 0.0 | 1.0 | 0.00 | 0.30 | 0.30 | 99 | 1011.1 |
| 20260507114549 | 51 | 261 | 0.0 | 1.0 | 0.00 | 0.30 | 0.30 | 99 | 1011.2 |
| 20260507114047 | 51 | 209 | 0.0 | 1.0 | 0.00 | 0.30 | 0.30 | 99 | 1011.1 |
| 20260507113543 | 51 | 209 | 0.0 | 1.0 | 0.00 | 0.30 | 0.30 | 99 | 1011.1 |
| 20260507113041 | 50 | 246 | 0.0 | 2.0 | 0.00 | 0.30 | 0.30 | 99 | 1011.3 |
| 20260507112538 | 50 | 241 | 2.0 | 2.0 | 0.00 | 0.30 | 0.30 | 99 | 1011.0 |
| 20260507112035 | 50 | 261 | 0.0 | 1.0 | 0.00 | 0.30 | 0.30 | 99 | 1010.8 |
| 20260507111532 | 50 | 246 | 0.0 | 1.0 | 0.00 | 0.30 | 0.30 | 99 | 1011.0 |
| 20260507111029 | 50 | 215 | 0.0 | 2.0 | 0.00 | 0.30 | 0.30 | 99 | 1010.9 |
| 20260507110525 | 50 | 203 | 0.0 | 1.0 | 0.00 | 0.30 | 0.30 | 99 | 1010.6 |
| 20260507110022 | 50 | 203 | 0.0 | 2.0 | 0.00 | 0.30 | 0.30 | 99 | 1010.6 |
| 20260507105519 | 50 | 323 | 0.0 | 2.0 | 0.00 | 0.30 | 0.30 | 99 | 1010.6 |
| 20260507105015 | 50 | 270 | 0.0 | 0.0 | 0.00 | 0.30 | 0.30 | 99 | 1010.6 |
| 20260507104513 | 50 | 172 | 0.0 | 0.0 | 0.00 | 0.30 | 0.30 | 99 | 1010.5 |
| 20260507104009 | 50 | 172 | 0.0 | 0.0 | 0.00 | 0.30 | 0.30 | 99 | 1010.7 |
| 20260507103505 | 50 | 261 | 0.0 | 0.0 | 0.00 | 0.30 | 0.30 | 99 | 1010.5 |
| 20260507103001 | 50 | 246 | 0.0 | 0.0 | 0.00 | 0.30 | 0.30 | 99 | 1010.5 |
| 20260507102458 | 50 | 285 | 0.0 | 1.0 | 0.00 | 0.30 | 0.30 | 99 | 1010.4 |
| 20260507101954 | 50 | 352 | 0.0 | 1.0 | 0.00 | 0.30 | 0.30 | 99 | 1010.6 |
| 20260507101449 | 50 | 270 | 0.0 | 0.0 | 0.00 | 0.30 | 0.30 | 99 | 1010.4 |
| 20260507100946 | 50 | 276 | 0.0 | 2.0 | 0.00 | 0.30 | 0.30 | 99 | 1010.3 |
| 20260507100444 | 50 | 353 | 0.0 | 1.0 | 0.00 | 0.30 | 0.30 | 99 | 1010.1 |
| 20260507095942 | 50 | 345 | 0.0 | 0.0 | 0.00 | 0.30 | 0.30 | 99 | 1009.8 |
| 20260507095439 | 51 | 251 | 0.0 | 0.0 | 0.00 | 0.30 | 0.30 | 99 | 1010.0 |
| 20260507094936 | 51 | 251 | 0.0 | 0.0 | 0.00 | 0.30 | 0.30 | 99 | 1009.9 |
| 20260507094432 | 50 | 200 | 0.0 | 1.0 | 0.00 | 0.30 | 0.30 | 99 | 1009.9 |
| 20260507093929 | 50 | 352 | 0.0 | 0.0 | 0.00 | 0.30 | 0.30 | 99 | 1009.8 |
| 20260507093427 | 50 | 352 | 0.0 | 0.0 | 0.00 | 0.30 | 0.30 | 99 | 1009.8 |
| 20260507092925 | 51 | 261 | 0.0 | 1.0 | 0.00 | 0.30 | 0.30 | 99 | 1009.8 |
| 20260507092421 | 51 | 279 | 0.0 | 1.0 | 0.00 | 0.30 | 0.30 | 99 | 1009.9 |
| 20260507091918 | 51 | 234 | 1.0 | 1.0 | 0.00 | 0.30 | 0.30 | 99 | 1009.7 |
| 20260507091414 | 51 | 261 | 0.0 | 2.0 | 0.00 | 0.30 | 0.30 | 99 | 1009.6 |
| 20260507090910 | 51 | 220 | 1.0 | 2.0 | 0.00 | 0.30 | 0.30 | 99 | 1009.7 |
| 20260507090407 | 51 | 289 | 1.0 | 2.0 | 0.00 | 0.30 | 0.30 | 99 | 1009.4 |
| 20260507085903 | 51 | 261 | 0.0 | 2.0 | 0.00 | 0.30 | 0.30 | 99 | 1009.5 |
| 20260507085400 | 51 | 180 | 0.0 | 3.0 | 0.00 | 0.30 | 0.30 | 99 | 1009.4 |
| 20260507084858 | 51 | 0 | 0.0 | 3.0 | 0.00 | 0.30 | 0.30 | 99 | 1009.7 |
| 20260507084354 | 51 | 270 | 2.0 | 2.0 | 0.00 | 0.30 | 0.30 | 99 | 1009.6 |
| 20260507083851 | 51 | 339 | 2.0 | 2.0 | 0.00 | 0.30 | 0.30 | 99 | 1009.4 |
| 20260507083348 | 51 | 180 | 0.0 | 2.0 | 0.00 | 0.30 | 0.30 | 99 | 1009.5 |
| 20260507082844 | 51 | 353 | 0.0 | 1.0 | 0.00 | 0.30 | 0.30 | 99 | 1009.2 |
| 20260507082339 | 51 | 337 | 0.0 | 1.0 | 0.00 | 0.30 | 0.30 | 99 | 1009.5 |
| 20260507081837 | 51 | 8 | 0.0 | 2.0 | 0.00 | 0.30 | 0.30 | 99 | 1009.3 |
| 20260507081333 | 51 | 262 | 0.0 | 0.0 | 0.00 | 0.30 | 0.30 | 99 | 1009.7 |
| 20260507080830 | 51 | 340 | 0.0 | 0.0 | 0.00 | 0.30 | 0.30 | 99 | 1009.5 |
| 20260507080326 | 51 | 261 | 0.0 | 2.0 | 0.00 | 0.30 | 0.30 | 99 | 1009.4 |
| 20260507075821 | 51 | 74 | 1.0 | 4.0 | 0.00 | 0.30 | 0.30 | 99 | 1009.3 |
| 20260507075318 | 51 | 230 | 2.0 | 3.0 | 0.02 | 0.30 | 0.30 | 99 | 1009.4 |
| 20260507074815 | 52 | 282 | 1.0 | 9.0 | 0.02 | 0.30 | 0.30 | 99 | 1009.0 |
| 20260507074312 | 53 | 270 | 0.0 | 4.0 | 0.00 | 0.30 | 0.30 | 99 | 1009.2 |
| 20260507073809 | 53 | 302 | 3.0 | 3.0 | 0.00 | 0.30 | 0.30 | 99 | 1009.0 |
| 20260507073306 | 53 | 246 | 0.0 | 3.0 | 0.00 | 0.30 | 0.30 | 99 | 1008.7 |
| 20260507072803 | 53 | 356 | 2.0 | 3.0 | 0.00 | 0.30 | 0.30 | 99 | 1008.7 |
| 20260507072301 | 54 | 0 | 0.0 | 2.0 | 0.00 | 0.30 | 0.30 | 99 | 1008.6 |
| 20260507071758 | 54 | 261 | 0.0 | 9.0 | 0.00 | 0.30 | 0.30 | 99 | 1009.1 |
| 20260507071254 | 54 | 274 | 3.0 | 4.0 | 0.00 | 0.30 | 0.30 | 99 | 1008.8 |
| 20260507070751 | 55 | 297 | 0.0 | 2.0 | 0.00 | 0.30 | 0.30 | 99 | 1008.3 |
| 20260507070248 | 55 | 249 | 0.0 | 1.0 | 0.05 | 0.30 | 0.30 | 99 | 1008.8 |
| 20260507065744 | 55 | 340 | 0.0 | 1.0 | 0.12 | 0.30 | 0.30 | 99 | 1008.7 |